Regional Weather Roundup
Issued by NWS

Home | Current Version | Previous Version | Text Only | Print | Product List | Glossary On
Versions: 1 2 3 4 5 6 7 8 9 10 11 12 13 14 15 16 17 18 19 20 21 22 23 24 25 26 27 28 29 30 31 32 33 34 35 36 37 38 39 40 41 42 43 44 45 46 47 48 49 50
000
ASUS43 KDMX 260707
RWRIA

WEATHER ROUNDUP FOR IOWA
NATIONAL WEATHER SERVICE DES MOINES IA
100 AM CST WED NOV 26 2014

NOTE: "FAIR" INDICATES FEW OR NO CLOUDS BELOW 12,000 FEET WITH NO
SIGNIFICANT WEATHER AND/OR OBSTRUCTIONS TO VISIBILITY.

* - THESE STATIONS ARE NOT NWS STATIONS...THUS NOT UNDER NWS
QUALITY CONTROL.  THEY ALSO DO NOT REPORT WEATHER SUCH
AS PRECIPITATION OR FOG.

IAZ001>003-012>014-020>022-031>034-043>046-260800-
   NORTHWEST IOWA

CITY           SKY/WX    TMP DP  RH WIND       PRES   REMARKS
CARROLL *      MOCLDY    30  30 100 SE9       29.87F WCI  22
CHEROKEE *     LGT SNOW  30  30 100 S8        29.83F WCI  23
DENISON *      CLOUDY    34  28  80 S20G26    29.81F WCI  22
LE MARS *      LGT SNOW  34  32  93 S3        29.82F
ORANGE CITY *  LGT SNOW  32  30  93 CALM      29.81F VSB 1
SHELDON *      LGT SNOW  30  30 100 SE10      29.82S WCI  21
SIOUX CITY     LGT RAIN  34  33  96 SE3       29.82S
SPENCER        LGT SNOW  28  25  88 SE12      29.85F FOG     WCI  18
STORM LAKE *   LGT SNOW  28  28 100 SE13      29.84F WCI  18
$$

IAZ055>058-069>071-079>083-090>094-260800-
   SOUTHWEST IOWA

CITY           SKY/WX    TMP DP  RH WIND       PRES   REMARKS
ATLANTIC *     LGT SNOW  34  28  80 S13G21    29.87F WCI  25
AUDUBON *      LGT SNOW  32  25  74 S8        29.87F WCI  25
CLARINDA *     CLOUDY    37  25  60 S9        29.91F WCI  31
COUNCIL BLFS * MIX PCPN  34  34 100 S12       29.82F WCI  25
CRESTON *      LGT SNOW  30  27  86 SE13      29.92F WCI  20
HARLAN  *      LGT SNOW  32  32 100 S16G24    29.88F WCI  21
LAMONI         CLOUDY    32  18  56 S10       29.95F WCI  24
RED OAK *      MIX PCPN  36  28  75 S13G18    29.88F WCI  27
SHENANDOAH *   MIX PCPN  37  30  75 S20G31    29.89F WCI  27
$$

IAZ047>049-059>061-072>074-084-260800-
   CENTRAL IOWA

CITY           SKY/WX    TMP DP  RH WIND       PRES   REMARKS
AMES           CLOUDY    28  18  66 SE7       29.96F WCI  21
ANKENY *       CLOUDY    30  18  59 SE10      29.95F WCI  21
CHARITON *     CLOUDY    30  19  64 SE13      29.96F WCI  20
DES MOINES     CLOUDY    33  16  49 SE6       29.96F WCI  28
GRINNELL*      CLOUDY    27  21  80 E9        30.00F WCI  17
KNOXVILLE *    CLOUDY    28  18  64 SE10      29.96F WCI  19
MARSHALLTOWN   CLOUDY    26  20  77 SE13      29.98F WCI  15
PELLA *        CLOUDY    28  21  74 SE12      30.00F WCI  18
PERRY *        FLURRIES  32  23  69 SE8       29.92F WCI  25
$$

IAZ004>006-015-016-023>025-035-036-260800-
   NORTH CENTRAL IOWA

CITY           SKY/WX    TMP DP  RH WIND       PRES   REMARKS
ALGONA *       LGT SNOW  28  23  80 SE14      29.92F WCI  17
CLARION *      CLOUDY    28  19  69 SE15      29.94F WCI  17
ESTHERVILLE    LGT SNOW  26  22  84 SE16      29.88F FOG     WCI  14
FORT DODGE *   CLOUDY    28  19  69 SE7       29.93S WCI  21
MASON CITY     CLOUDY    23  18  81 SE13      29.98F WCI  11
FOREST CITY *  MOCLDY    27  21  80 SE9       29.95F WCI  17
IOWA FALLS *   CLOUDY    27  21  80 SE13      29.96F WCI  16
$$

IAZ007>011-017>019-026>030-037>042-050>054-066-260800-
   NORTHEAST IOWA

CITY           SKY/WX    TMP DP  RH WIND       PRES   REMARKS
CEDAR RAPIDS   MOCLDY    21  19  92 SE7       30.06F WCI  12
CHARLES CITY * CLOUDY    23  19  86 SE14      30.02S WCI  11
CLINTON *      CLEAR      9   7  92 E6        30.14F WCI  -1
DECORAH *      CLOUDY    19  14  79 S7        30.05S WCI  10
DUBUQUE        CLEAR     16  13  88 S6        30.09F WCI   7
MONTICELLO *   CLEAR     19  18  93 SE8       30.09F WCI   9
OELWEIN *      CLEAR     21  18  86 SE13      30.05F WCI   9
WATERLOO       MOCLDY    24  19  81 SE13      30.03F WCI  12
$$

IAZ064-065-067-068-078-260800-
   EAST CENTRAL IOWA

CITY           SKY/WX    TMP DP  RH WIND       PRES   REMARKS
DAVENPORT      CLEAR     16  12  84 SE6       30.12F WCI   7
IOWA CITY      MOCLDY    20  17  88 E6        30.10F WCI  12
MT. PLEASANT * PTCLDY    23  19  86 SE7       30.08F WCI  15
MUSCATINE *    CLEAR     16  14  93 N3        30.12F
QUAD CITIES    CLEAR     16  12  84 E5        30.12F WCI   9
$$

IAZ062-063-075>077-085>089-095>099-260800-
   SOUTHEAST IOWA

CITY           SKY/WX    TMP DP  RH WIND       PRES   REMARKS
BURLINGTON     PTCLDY    24  21  88 SE3       30.09F
FAIRFIELD *    MOCLDY    25  19  80 SE8       30.05F WCI  16
FORT MADISON * CLEAR     27  23  86 SE7       30.09F WCI  19
KEOKUK *       CLEAR     25  23  93 SE6       30.08F WCI  18
OSKALOOSA *      N/A     25  21  86 SE14      30.02F WCI  13
CENTERVILLE *    N/A     28  19  69 SE7       30.00F WCI  21
OTTUMWA        MOCLDY    26  19  74 SE12      30.01F WCI  16
WASHINGTON *   CLEAR     23  23 100 SE7       30.07F WCI  15
$$

ABBREVIATIONS USED IN REMARKS
   TC - TEMPERATURES IN CELSIUS
  WCI - WIND CHILL INDEX
   HX - HEAT INDEX
  VSB - VISIBILITY
$$




USA.gov is the U.S. government's official web portal to all federal, state and local government web resources and services.